TELKOM 1

Last updated on Thu Dec 14 2017 00:19:09 GMT+0000 (Coordinated Universal Time)

1 25880U 99042A 17347.06712817 -.00000169 00000-0 00000-0 0 9998 2 25880 0.2163 96.6040 0025713 173.8063 279.2824 1.00249457 67221
UTC large
Height (km)
Speed (km/s)
/
Latitude / Longitude
Inclination (degrees)
Orbital Period (minutes)
Azimuth
Elevation
Range (km)
Doppler Factor

Next 0 passes for location: London (51.5072 / 0.1276)

Sorry there are no passes over London.